Overview Statistics Trail Chart Weather Telemetry Raw packets
 

This is the latest recevied weather packets stored in our database for station/object Seibranz. If no packets are shown the sender has not sent any weather packets the latest 10 day(s).

<< 16 17 18 19 >>
Time Temp. Humidity Pressure Rain* Wind** Luminosity Snow
1787756530 24.44° C 62% 1014.1 hPa 1.02 mm - - -
1787754731 25° C 59% 1014.6 hPa 1.02 mm - - -
1787752930 25.56° C 62% 1014.9 hPa 1.02 mm - - -
1787751131 25° C 63% 1015 hPa 1.02 mm - - -
1787749330 25° C 64% 1015.2 hPa 1.02 mm - - -
1787747533 24.44° C 62% 1015.4 hPa 1.02 mm - - -
1787745730 24.44° C 66% 1015.5 hPa 1.02 mm - - -
1787743931 23.89° C 73% 1015.4 hPa 1.02 mm - - -
1787742134 23.33° C 69% 1015.8 hPa 1.02 mm - - -
1787740330 22.78° C 74% 1015.9 hPa 1.02 mm - - -
1787738530 22.22° C 79% 1016 hPa 1.02 mm - - -
1787736730 21.11° C 77% 1016.3 hPa 1.02 mm - - -
1787734930 20° C 84% 1016.4 hPa 1.02 mm - - -
1787733130 18.89° C 86% 1016.4 hPa 1.02 mm - - -
1787731330 17.78° C 91% 1016.4 hPa 1.02 mm - - -
1787729531 17.22° C 93% 1016.1 hPa 1.02 mm - - -
1787727730 15.56° C 93% 1015.9 hPa 1.02 mm - - -
1787725929 15.56° C 91% 1016.1 hPa 0.76 mm - - -
1787724130 16.67° C 90% 1015.6 hPa 0 mm - - -
1787722332 16.11° C 90% 1015.6 hPa 0 mm - - -
1787720530 16.11° C 90% 1015.6 hPa 0 mm - - -
1787718729 14.44° C 93% 1015.5 hPa 0 mm - - -

* Rain since midnight (hover to see other rain measurements)
** Current wind speed in m/s (hover to see current wind gust speed)